[Iaude] MPEC R116: 2023 RO3 [a=1.75,e=0.43,i=2.9,H=25.1]

mpec at marsden.cfa.harvard.edu mpec at marsden.cfa.harvard.edu
Sun Sep 10 19:52:21 EDT 2023


M.P.E.C. 2023-R116                           Issued 2023 September 10, 23:50 UT

     The Minor Planet Electronic Circulars contain information on unusual
         minor planets, routine data on comets and natural satellites,
         and occasional editorial announcements.  They are published
    on behalf of Division F of the International Astronomical Union by the
          Minor Planet Center, Smithsonian Astrophysical Observatory,
                          Cambridge, MA 02138, U.S.A.
			  
             Prepared using the Tamkin Foundation Computer Network

                              MPC at CFA.HARVARD.EDU
            URL https://www.minorplanetcenter.net/    ISSN 1523-6714

                                    2023 RO3                                    


Observations:
     K23R03O*1C2023 09 09.33591823 24 26.053+41 01 00.26         20.16GVER116G96
     K23R03O 1C2023 09 09.34644323 24 33.109+41 03 16.92         20.25GVER116G96
     K23R03O 1C2023 09 09.35168923 24 36.666+41 04 25.00         20.84GVER116G96
     K23R03O 1C2023 09 09.48153023 26 06.878+41 32 09.85         20.96GVER116G96
     K23R03O 1C2023 09 09.48194523 26 07.213+41 32 14.75         20.39GVER116G96
     K23R03O 1C2023 09 09.48236023 26 07.501+41 32 20.11         20.72GVER116G96
     K23R03O KC2023 09 09.98536623 32 55.90 +43 22 58.3          20.7 GVER116L01
     K23R03O KC2023 09 09.98710323 32 57.23 +43 23 21.1          20.9 GVER116L01
     K23R03O KC2023 09 09.98908023 32 58.71 +43 23 47.6          21.1 GVER116L01
     K23R03O KC2023 09 09.99135823 33 00.49 +43 24 16.9          20.8 GVER116L01
     K23R03O KC2023 09 09.99377523 33 02.32 +43 24 48.6          20.7 GVER116L01
     K23R03O 1C2023 09 10.00605 23 33 12.20 +43 27 15.0          19.7 VXER116033
     K23R03O 1C2023 09 10.00709 23 33 13.00 +43 27 28.6          19.7 VXER116033
     K23R03O 1C2023 09 10.00813 23 33 13.79 +43 27 42.2          20.5 VXER116033
     K23R03O KC2023 09 10.18162923 35 46.35 +44 06 17.1          20.9 VuER116H21
     K23R03O KC2023 09 10.18442623 35 48.57 +44 06 54.7          20.8 VuER116H21
     K23R03O KC2023 09 10.18722223 35 50.76 +44 07 32.0          20.4 VuER116H21
     K23R03O KC2023 09 10.19001823 35 52.95 +44 08 09.7          20.5 VuER116H21
     K23R03O KC2023 09 10.94670523 47 15.87 +46 54 10.7          20.2 GVER116104
     K23R03O KC2023 09 10.95284023 47 21.32 +46 55 31.7          20.6 GVER116104
     K23R03O KC2023 09 10.95795123 47 25.91 +46 56 39.0          20.3 GVER116104

Observer details:
033 Karl Schwarzschild Observatory, Tautenburg.  Observers S. Melnikov, C.
    Hoegner, F. Ludwig, M. Hartmann, B. Stecklum.  Measurer B. Stecklum.
    1.34-m f/3 Schmidt + CCD.
104 San Marcello Pistoiese.  Observers P. Bacci, M. Maestripieri.  Measurers
    P. Bacci, L. Tesi, G. Fagioli.  0.60-m F4 Reflector + CCD.
G96 Mt. Lemmon Survey.  Observer D. C. Fuls.  Measurers E. J. Christensen, D.
    Fay, J. B. Fazekas, D. C. Fuls, A. R. Gibbs, A. D. Grauer, H. Groeller, J.
    K. Hogan, R. A. Kowalski, S. M. Larson, G. J. Leonard, D. Rankin, R. L.
    Seaman, A. Serrano, F. C. Shelly, K. W. Wierzchos.  1.5-m reflector + 10K
    CCD.
H21 Astronomical Research Observatory, Westfield.  Observer R. Holmes.
    Measurers T. Linder, R. Holmes, L. Horn.  0.76-m f/3.0 astrograph + CCD.
L01 Visnjan Observatory, Tican.  Observer K. Korlevic.  1.0-m f/2.9 reflector
    + CCD.

Orbital elements:
2023 RO3                                                 Earth MOID = 0.0429 AU
Epoch 2023 Sept. 13.0 TT = JDT 2460200.5                Veres                   
M 349.10029              (2000.0)            P               Q                  
n   0.42623241     Peri.   77.12328     +0.93419770     -0.35433051             
a   1.7486588      Node   303.61499     +0.30492712     +0.85347500             
e   0.4319274      Incl.    2.85832     +0.18518668     +0.38213913             
P   2.31           H   25.18          G   0.15           U   9                  
Residuals in seconds of arc
230909 G96  0.2+  0.3+    230909 L01  0.2-  0.3-    230910 H21  0.1-  0.5+
230909 G96  0.1-  0.3-    230909 L01  0.4-  0.2+    230910 H21  0.1+  0.5+
230909 G96  0.2+  0.5-    230909 L01  0.1+  0.5-    230910 H21  0.1+  0.1+
230909 G96  0.2-  0.0     230909 L01  0.0   0.6-    230910 H21  0.0   0.2+
230909 G96  0.2+  0.4-    230910 033  0.1-  0.0     230910 104  0.1+  0.1+
230909 G96  0.1+  0.3-    230910 033  0.1-  0.1-    230910 104  0.2-  0.2-
230909 L01  0.3-  0.2-    230910 033  0.2-  0.1-    230910 104  0.2+  0.5-

Ephemeris:
2023 RO3                 a,e,i = 1.75, 0.43, 3                   q = 0.9934
Date    TT    R. A. (2000) Decl.     Delta      r    Elong.  Phase     V
2023 08 11    21 45 21.6 -07 57 15   0.1695  1.1812   170.4     8.3    22.3
...
2023 08 26    22 05 01.3 +05 08 15   0.09738 1.1047   163.9    14.7    21.2
...
2023 09 03    22 32 46.3 +20 45 32   0.06898 1.0699   151.2    27.0    20.7
...
2023 09 09    23 20 23.0 +39 47 15   0.05581 1.0473   134.5    43.3    20.7
2023 09 10    23 33 08.0 +43 26 06   0.05461 1.0439   131.1    46.7    20.7
2023 09 11    23 48 03.4 +47 05 32   0.05374 1.0406   127.5    50.1    20.8
...
2023 09 17    02 23 49.4 +63 54 53   0.05565 1.0227   106.7    70.3    21.4
...
2023 09 25    06 12 32.0 +60 30 33   0.07274 1.0052    89.5    86.3    22.5
...
2023 10 10    07 59 38.2 +44 57 06   0.1202  0.9935    84.0    89.1    23.7

M. P. C. Staff               (C) Copyright 2023 MPC           M.P.E.C. 2023-R116





More information about the Iaude mailing list